User: anonymous   Login
Location: Tel Aviv
(32.0670°N, 34.7670°E)
Time: 15:59:04
(UTC+02:00)
Language:

TIGRISAT - Orbit

View from above orbital plane
View from above orbital plane
View from above satellite
View from above satellite

Ground track
Ground track

The orbit data is extracted from the following two-line orbital elements,

1 40043U 14033AK  23080.20837121  .00002642  00000-0  38040-3 0  9991
2 40043  97.6601 259.7359 0057642 340.3827  19.5166 14.76030450470732
Epoch (UTC): 21 March 2023 05:00:03
Eccentricity: 0.0057642
inclination: 97.6601°
perigee height: 601 km
apogee height: 682 km
right ascension of ascending node: 259.7359°
argument of perigee: 340.3827°
revolutions per day: 14.76030450
mean anomaly at epoch: 19.5166°
orbit number at epoch: 47073

The dashed part of the orbit path shows where the satellite is in the earth's shadow,  

DLR